owner,sensor,date,latitude,longitude,vertical_datum,mass_concentration_of_oxygen_in_sea_water,qcFlag 
DISL,ioos:station:DISL:CATA:1,2013-02-01T00:00:00Z,30.3085,-88.1395,2.079,11.15,1111122 
DISL,ioos:station:DISL:CATA:1,2013-02-01T00:30:00Z,30.3085,-88.1395,2.061,11.15,1111122 
DISL,ioos:station:DISL:CATA:1,2013-02-01T01:00:00Z,30.3085,-88.1395,2.061,11.06,1111122 
DISL,ioos:station:DISL:CATA:1,2013-02-01T01:30:00Z,30.3085,-88.1395,2.061,10.94,1111122 
DISL,ioos:station:DISL:CATA:1,2013-02-01T02:00:00Z,30.3085,-88.1395,2.066,10.91,1111122 
DISL,ioos:station:DISL:CATA:1,2013-02-01T02:30:00Z,30.3085,-88.1395,2.064,10.87,1111122 
DISL,ioos:station:DISL:CATA:1,2013-02-01T03:00:00Z,30.3085,-88.1395,2.054,10.79,1111122 
DISL,ioos:station:DISL:CATA:1,2013-02-01T03:30:00Z,30.3085,-88.1395,2.042,10.76,1111122 
DISL,ioos:station:DISL:CATA:1,2013-02-01T04:00:00Z,30.3085,-88.1395,2.045,10.75,1111122 
DISL,ioos:station:DISL:CATA:1,2013-02-01T04:30:00Z,30.3085,-88.1395,2.046,10.78,1111122 
DISL,ioos:station:DISL:CATA:1,2013-02-01T05:00:00Z,30.3085,-88.1395,2.048,10.74,1111122 
DISL,ioos:station:DISL:CATA:1,2013-02-01T05:30:00Z,30.3085,-88.1395,2.059,10.62,1111122 
DISL,ioos:station:DISL:CATA:1,2013-02-01T06:00:00Z,30.3085,-88.1395,2.071,10.42,1111122 
DISL,ioos:station:DISL:CATA:1,2013-02-01T06:30:00Z,30.3085,-88.1395,2.06,10.49,1111122 
DISL,ioos:station:DISL:CATA:1,2013-02-01T07:00:00Z,30.3085,-88.1395,2.046,10.41,1111122 
DISL,ioos:station:DISL:CATA:1,2013-02-01T07:30:00Z,30.3085,-88.1395,2.047,10.34,1111122 
DISL,ioos:station:DISL:CATA:1,2013-02-01T08:00:00Z,30.3085,-88.1395,2.026,10.27,1111122 
DISL,ioos:station:DISL:CATA:1,2013-02-01T08:30:00Z,30.3085,-88.1395,2.018,10.15,1111122 
DISL,ioos:station:DISL:CATA:1,2013-02-01T09:00:00Z,30.3085,-88.1395,1.995,10.05,1111122 
DISL,ioos:station:DISL:CATA:1,2013-02-01T09:30:00Z,30.3085,-88.1395,1.99,10.02,1111122 
DISL,ioos:station:DISL:CATA:1,2013-02-01T10:00:00Z,30.3085,-88.1395,1.995,9.94,1111122 
DISL,ioos:station:DISL:CATA:1,2013-02-01T10:30:00Z,30.3085,-88.1395,1.966,9.86,1111122 
DISL,ioos:station:DISL:CATA:1,2013-02-01T11:00:00Z,30.3085,-88.1395,1.953,9.94,1111122 
DISL,ioos:station:DISL:CATA:1,2013-02-01T11:30:00Z,30.3085,-88.1395,1.945,9.97,1111122 
DISL,ioos:station:DISL:CATA:1,2013-02-01T12:00:00Z,30.3085,-88.1395,1.935,9.62,1111122 
DISL,ioos:station:DISL:CATA:1,2013-02-01T12:30:00Z,30.3085,-88.1395,1.935,9.14,1111122 
DISL,ioos:station:DISL:CATA:1,2013-02-01T13:00:00Z,30.3085,-88.1395,1.926,9.05,1111122 
DISL,ioos:station:DISL:CATA:1,2013-02-01T13:30:00Z,30.3085,-88.1395,1.931,9.23,1111122 
DISL,ioos:station:DISL:CATA:1,2013-02-01T14:00:00Z,30.3085,-88.1395,1.934,9.65,1111122 
DISL,ioos:station:DISL:CATA:1,2013-02-01T14:30:00Z,30.3085,-88.1395,1.931,10.01,1111122 
DISL,ioos:station:DISL:CATA:1,2013-02-01T15:00:00Z,30.3085,-88.1395,1.936,9.99,1111122 
DISL,ioos:station:DISL:CATA:1,2013-02-01T15:30:00Z,30.3085,-88.1395,1.939,10.15,1111122 
DISL,ioos:station:DISL:CATA:1,2013-02-01T16:00:00Z,30.3085,-88.1395,1.939,10.25,1111122 
DISL,ioos:station:DISL:CATA:1,2013-02-01T16:30:00Z,30.3085,-88.1395,1.93,10.5,1111122 
DISL,ioos:station:DISL:CATA:1,2013-02-01T17:00:00Z,30.3085,-88.1395,1.925,10.89,1111122 
DISL,ioos:station:DISL:CATA:1,2013-02-01T17:30:00Z,30.3085,-88.1395,1.934,10.87,1111122 
DISL,ioos:station:DISL:CATA:1,2013-02-01T18:00:00Z,30.3085,-88.1395,1.958,10.84,1111122 
DISL,ioos:station:DISL:CATA:1,2013-02-01T18:30:00Z,30.3085,-88.1395,1.978,10.87,1111122 
DISL,ioos:station:DISL:CATA:1,2013-02-01T19:00:00Z,30.3085,-88.1395,2.012,10.84,1111122 
DISL,ioos:station:DISL:CATA:1,2013-02-01T19:30:00Z,30.3085,-88.1395,2.035,10.59,1111122 
DISL,ioos:station:DISL:CATA:1,2013-02-01T20:00:00Z,30.3085,-88.1395,2.057,10.65,1111122 
DISL,ioos:station:DISL:CATA:1,2013-02-01T20:30:00Z,30.3085,-88.1395,2.065,11.2,1111122 
DISL,ioos:station:DISL:CATA:1,2013-02-01T21:00:00Z,30.3085,-88.1395,2.07,11.56,1111122 
DISL,ioos:station:DISL:CATA:1,2013-02-01T21:30:00Z,30.3085,-88.1395,2.056,11.74,1111122 
DISL,ioos:station:DISL:CATA:1,2013-02-01T22:00:00Z,30.3085,-88.1395,2.047,11.82,1111122 
DISL,ioos:station:DISL:CATA:1,2013-02-01T22:30:00Z,30.3085,-88.1395,2.051,11.35,1111122 
DISL,ioos:station:DISL:CATA:1,2013-02-01T23:00:00Z,30.3085,-88.1395,2.057,11.32,1111122 
DISL,ioos:station:DISL:CATA:1,2013-02-01T23:30:00Z,30.3085,-88.1395,2.052,11.34,1111122 
DISL,ioos:station:DISL:CATA:1,2013-02-02T00:00:00Z,30.3085,-88.1395,2.048,11.54,1111122 
DISL,ioos:station:DISL:CATA:1,2013-02-02T00:30:00Z,30.3085,-88.1395,2.024,11.2,1111122 
DISL,ioos:station:DISL:CATA:1,2013-02-02T01:00:00Z,30.3085,-88.1395,2.016,11.2,1111122 
DISL,ioos:station:DISL:CATA:1,2013-02-02T01:30:00Z,30.3085,-88.1395,2.002,10.9,1111122 
DISL,ioos:station:DISL:CATA:1,2013-02-02T02:00:00Z,30.3085,-88.1395,1.992,10.69,1111122 
DISL,ioos:station:DISL:CATA:1,2013-02-02T02:30:00Z,30.3085,-88.1395,1.983,10.69,1111122 
DISL,ioos:station:DISL:CATA:1,2013-02-02T03:00:00Z,30.3085,-88.1395,1.977,10.74,1111122 
DISL,ioos:station:DISL:CATA:1,2013-02-02T03:30:00Z,30.3085,-88.1395,1.966,10.69,1111122 
DISL,ioos:station:DISL:CATA:1,2013-02-02T04:00:00Z,30.3085,-88.1395,1.951,10.68,1111122 
DISL,ioos:station:DISL:CATA:1,2013-02-02T04:30:00Z,30.3085,-88.1395,1.94,10.61,1111122 
DISL,ioos:station:DISL:CATA:1,2013-02-02T05:00:00Z,30.3085,-88.1395,1.935,10.5,1111122 
DISL,ioos:station:DISL:CATA:1,2013-02-02T05:30:00Z,30.3085,-88.1395,1.936,10.5,1111122 
DISL,ioos:station:DISL:CATA:1,2013-02-02T06:00:00Z,30.3085,-88.1395,1.927,10.52,1111122 
DISL,ioos:station:DISL:CATA:1,2013-02-02T06:30:00Z,30.3085,-88.1395,1.916,10.55,1111122 
DISL,ioos:station:DISL:CATA:1,2013-02-02T07:00:00Z,30.3085,-88.1395,1.908,10.53,1111122 
DISL,ioos:station:DISL:CATA:1,2013-02-02T07:30:00Z,30.3085,-88.1395,1.901,10.44,1111122 
DISL,ioos:station:DISL:CATA:1,2013-02-02T08:00:00Z,30.3085,-88.1395,1.904,10.37,1111122 
DISL,ioos:station:DISL:CATA:1,2013-02-02T08:30:00Z,30.3085,-88.1395,1.921,10.33,1111122 
DISL,ioos:station:DISL:CATA:1,2013-02-02T09:00:00Z,30.3085,-88.1395,1.921,10.31,1111122 
DISL,ioos:station:DISL:CATA:1,2013-02-02T09:30:00Z,30.3085,-88.1395,1.942,10.31,1111122 
DISL,ioos:station:DISL:CATA:1,2013-02-02T10:00:00Z,30.3085,-88.1395,1.956,10.34,1111122 
DISL,ioos:station:DISL:CATA:1,2013-02-02T10:30:00Z,30.3085,-88.1395,1.956,10.34,1111122 
DISL,ioos:station:DISL:CATA:1,2013-02-02T11:00:00Z,30.3085,-88.1395,1.959,10.35,1111122 
DISL,ioos:station:DISL:CATA:1,2013-02-02T11:30:00Z,30.3085,-88.1395,1.961,10.34,1111122 
DISL,ioos:station:DISL:CATA:1,2013-02-02T12:00:00Z,30.3085,-88.1395,1.965,10.34,1111122 
DISL,ioos:station:DISL:CATA:1,2013-02-02T12:30:00Z,30.3085,-88.1395,1.964,10.33,1111122 
DISL,ioos:station:DISL:CATA:1,2013-02-02T13:00:00Z,30.3085,-88.1395,1.96,10.34,1111122 
DISL,ioos:station:DISL:CATA:1,2013-02-02T13:30:00Z,30.3085,-88.1395,1.967,10.33,1111122 
DISL,ioos:station:DISL:CATA:1,2013-02-02T14:00:00Z,30.3085,-88.1395,1.981,10.35,1111122 
DISL,ioos:station:DISL:CATA:1,2013-02-02T14:30:00Z,30.3085,-88.1395,2.0,10.36,1111122 
DISL,ioos:station:DISL:CATA:1,2013-02-02T15:00:00Z,30.3085,-88.1395,2.017,10.38,1111122 
DISL,ioos:station:DISL:CATA:1,2013-02-02T15:30:00Z,30.3085,-88.1395,2.036,10.4,1111122 
DISL,ioos:station:DISL:CATA:1,2013-02-02T16:00:00Z,30.3085,-88.1395,2.057,10.43,1111122 
DISL,ioos:station:DISL:CATA:1,2013-02-02T16:30:00Z,30.3085,-88.1395,2.087,10.44,1111122 
DISL,ioos:station:DISL:CATA:1,2013-02-02T17:00:00Z,30.3085,-88.1395,2.124,10.46,1111122 
DISL,ioos:station:DISL:CATA:1,2013-02-02T17:30:00Z,30.3085,-88.1395,2.165,10.44,1111122 
DISL,ioos:station:DISL:CATA:1,2013-02-02T18:00:00Z,30.3085,-88.1395,2.195,10.32,1111122 
DISL,ioos:station:DISL:CATA:1,2013-02-02T18:30:00Z,30.3085,-88.1395,2.223,10.37,1111122 
DISL,ioos:station:DISL:CATA:1,2013-02-02T19:00:00Z,30.3085,-88.1395,2.245,10.37,1111122 
DISL,ioos:station:DISL:CATA:1,2013-02-02T19:30:00Z,30.3085,-88.1395,2.267,10.42,1111122 
DISL,ioos:station:DISL:CATA:1,2013-02-02T20:00:00Z,30.3085,-88.1395,2.294,10.55,1111122 
DISL,ioos:station:DISL:CATA:1,2013-02-02T20:30:00Z,30.3085,-88.1395,2.312,10.45,1111122 
DISL,ioos:station:DISL:CATA:1,2013-02-02T21:00:00Z,30.3085,-88.1395,2.325,10.47,1111122 
DISL,ioos:station:DISL:CATA:1,2013-02-02T21:30:00Z,30.3085,-88.1395,2.339,10.5,1111122 
DISL,ioos:station:DISL:CATA:1,2013-02-02T22:00:00Z,30.3085,-88.1395,2.334,10.51,1111122 
DISL,ioos:station:DISL:CATA:1,2013-02-02T22:30:00Z,30.3085,-88.1395,2.341,10.51,1111122 
DISL,ioos:station:DISL:CATA:1,2013-02-02T23:00:00Z,30.3085,-88.1395,2.336,10.53,1111122 
DISL,ioos:station:DISL:CATA:1,2013-02-02T23:30:00Z,30.3085,-88.1395,2.32,10.57,1111122 
DISL,ioos:station:DISL:CATA:1,2013-02-03T00:00:00Z,30.3085,-88.1395,2.296,10.65,1111122 
DISL,ioos:station:DISL:CATA:1,2013-02-03T00:30:00Z,30.3085,-88.1395,2.276,10.61,1111122 
DISL,ioos:station:DISL:CATA:1,2013-02-03T01:00:00Z,30.3085,-88.1395,2.245,10.34,1111122 
DISL,ioos:station:DISL:CATA:1,2013-02-03T01:30:00Z,30.3085,-88.1395,2.216,10.44,1111122 
DISL,ioos:station:DISL:CATA:1,2013-02-03T02:00:00Z,30.3085,-88.1395,2.182,10.65,1111122 
DISL,ioos:station:DISL:CATA:1,2013-02-03T02:30:00Z,30.3085,-88.1395,2.146,10.75,1111122 
DISL,ioos:station:DISL:CATA:1,2013-02-03T03:00:00Z,30.3085,-88.1395,2.119,10.63,1111122 
DISL,ioos:station:DISL:CATA:1,2013-02-03T03:30:00Z,30.3085,-88.1395,2.086,10.59,1111122 
DISL,ioos:station:DISL:CATA:1,2013-02-03T04:00:00Z,30.3085,-88.1395,2.065,10.49,1111122 
DISL,ioos:station:DISL:CATA:1,2013-02-03T04:30:00Z,30.3085,-88.1395,2.043,10.45,1111122 
DISL,ioos:station:DISL:CATA:1,2013-02-03T05:00:00Z,30.3085,-88.1395,2.02,10.46,1111122 
DISL,ioos:station:DISL:CATA:1,2013-02-03T05:30:00Z,30.3085,-88.1395,2.005,10.44,1111122 
DISL,ioos:station:DISL:CATA:1,2013-02-03T06:00:00Z,30.3085,-88.1395,1.99,10.44,1111122 
DISL,ioos:station:DISL:CATA:1,2013-02-03T06:30:00Z,30.3085,-88.1395,1.972,10.4,1111122 
DISL,ioos:station:DISL:CATA:1,2013-02-03T07:00:00Z,30.3085,-88.1395,1.963,10.29,1111122 
DISL,ioos:station:DISL:CATA:1,2013-02-03T07:30:00Z,30.3085,-88.1395,1.962,10.25,1111122 
DISL,ioos:station:DISL:CATA:1,2013-02-03T08:00:00Z,30.3085,-88.1395,1.959,10.26,1111122 
DISL,ioos:station:DISL:CATA:1,2013-02-03T08:30:00Z,30.3085,-88.1395,1.971,10.25,1111122 
DISL,ioos:station:DISL:CATA:1,2013-02-03T09:00:00Z,30.3085,-88.1395,1.951,10.26,1111122 
DISL,ioos:station:DISL:CATA:1,2013-02-03T09:30:00Z,30.3085,-88.1395,1.919,10.19,1111122 
DISL,ioos:station:DISL:CATA:1,2013-02-03T10:00:00Z,30.3085,-88.1395,1.912,10.15,1111122 
DISL,ioos:station:DISL:CATA:1,2013-02-03T10:30:00Z,30.3085,-88.1395,1.923,10.18,1111122 
DISL,ioos:station:DISL:CATA:1,2013-02-03T11:00:00Z,30.3085,-88.1395,1.914,10.23,1111122 
DISL,ioos:station:DISL:CATA:1,2013-02-03T11:30:00Z,30.3085,-88.1395,1.893,10.22,1111122 
DISL,ioos:station:DISL:CATA:1,2013-02-03T12:00:00Z,30.3085,-88.1395,1.882,10.26,1111122 
DISL,ioos:station:DISL:CATA:1,2013-02-03T12:30:00Z,30.3085,-88.1395,1.89,10.28,1111122 
DISL,ioos:station:DISL:CATA:1,2013-02-03T13:00:00Z,30.3085,-88.1395,1.904,10.3,1111122 
DISL,ioos:station:DISL:CATA:1,2013-02-03T13:30:00Z,30.3085,-88.1395,1.934,10.31,1111122 
DISL,ioos:station:DISL:CATA:1,2013-02-03T14:00:00Z,30.3085,-88.1395,1.964,10.35,1111122 
DISL,ioos:station:DISL:CATA:1,2013-02-03T14:30:00Z,30.3085,-88.1395,1.997,10.39,1111122 
DISL,ioos:station:DISL:CATA:1,2013-02-03T15:00:00Z,30.3085,-88.1395,2.015,10.45,1111122 
DISL,ioos:station:DISL:CATA:1,2013-02-03T15:30:00Z,30.3085,-88.1395,2.05,10.38,1111122 
DISL,ioos:station:DISL:CATA:1,2013-02-03T16:00:00Z,30.3085,-88.1395,2.081,10.45,1111122 
DISL,ioos:station:DISL:CATA:1,2013-02-03T16:30:00Z,30.3085,-88.1395,2.102,10.57,1111122 
DISL,ioos:station:DISL:CATA:1,2013-02-03T17:00:00Z,30.3085,-88.1395,2.123,10.61,1111122 
DISL,ioos:station:DISL:CATA:1,2013-02-03T17:30:00Z,30.3085,-88.1395,2.145,10.61,1111122 
DISL,ioos:station:DISL:CATA:1,2013-02-03T18:00:00Z,30.3085,-88.1395,2.167,10.62,1111122 
DISL,ioos:station:DISL:CATA:1,2013-02-03T18:30:00Z,30.3085,-88.1395,2.196,10.77,1111122 
DISL,ioos:station:DISL:CATA:1,2013-02-03T19:00:00Z,30.3085,-88.1395,2.229,10.71,1111122 
DISL,ioos:station:DISL:CATA:1,2013-02-03T19:30:00Z,30.3085,-88.1395,2.272,11.14,1111122 
DISL,ioos:station:DISL:CATA:1,2013-02-03T20:00:00Z,30.3085,-88.1395,2.3,10.8,1111122 
DISL,ioos:station:DISL:CATA:1,2013-02-03T20:30:00Z,30.3085,-88.1395,2.318,11.26,1111122 
DISL,ioos:station:DISL:CATA:1,2013-02-03T21:00:00Z,30.3085,-88.1395,2.326,11.84,1111122 
DISL,ioos:station:DISL:CATA:1,2013-02-03T21:30:00Z,30.3085,-88.1395,2.339,12.38,1111122 
DISL,ioos:station:DISL:CATA:1,2013-02-03T22:00:00Z,30.3085,-88.1395,2.341,12.37,1111122 
DISL,ioos:station:DISL:CATA:1,2013-02-03T22:30:00Z,30.3085,-88.1395,2.337,12.27,1111122 
DISL,ioos:station:DISL:CATA:1,2013-02-03T23:00:00Z,30.3085,-88.1395,2.334,12.35,1111122 
DISL,ioos:station:DISL:CATA:1,2013-02-03T23:30:00Z,30.3085,-88.1395,2.327,12.3,1111122 
DISL,ioos:station:DISL:CATA:1,2013-02-04T00:00:00Z,30.3085,-88.1395,2.32,12.13,1111122 
DISL,ioos:station:DISL:CATA:1,2013-02-04T00:30:00Z,30.3085,-88.1395,2.311,12.12,1111122 
DISL,ioos:station:DISL:CATA:1,2013-02-04T01:00:00Z,30.3085,-88.1395,2.301,12.22,1111122 
DISL,ioos:station:DISL:CATA:1,2013-02-04T01:30:00Z,30.3085,-88.1395,2.27,12.27,1111122 
DISL,ioos:station:DISL:CATA:1,2013-02-04T02:00:00Z,30.3085,-88.1395,2.245,12.21,1111122 
DISL,ioos:station:DISL:CATA:1,2013-02-04T02:30:00Z,30.3085,-88.1395,2.212,11.77,1111122 
DISL,ioos:station:DISL:CATA:1,2013-02-04T03:00:00Z,30.3085,-88.1395,2.185,10.5,1111122 
DISL,ioos:station:DISL:CATA:1,2013-02-04T03:30:00Z,30.3085,-88.1395,2.146,10.48,1111122 
DISL,ioos:station:DISL:CATA:1,2013-02-04T04:00:00Z,30.3085,-88.1395,2.116,10.6,1111122 
DISL,ioos:station:DISL:CATA:1,2013-02-04T04:30:00Z,30.3085,-88.1395,2.075,10.61,1111122 
DISL,ioos:station:DISL:CATA:1,2013-02-04T05:00:00Z,30.3085,-88.1395,2.043,10.26,1111122 
DISL,ioos:station:DISL:CATA:1,2013-02-04T05:30:00Z,30.3085,-88.1395,2.013,10.25,1111122 
DISL,ioos:station:DISL:CATA:1,2013-02-04T06:00:00Z,30.3085,-88.1395,1.994,10.3,1111122 
DISL,ioos:station:DISL:CATA:1,2013-02-04T06:30:00Z,30.3085,-88.1395,1.966,10.34,1111122 
DISL,ioos:station:DISL:CATA:1,2013-02-04T07:00:00Z,30.3085,-88.1395,1.949,10.35,1111122 
DISL,ioos:station:DISL:CATA:1,2013-02-04T07:30:00Z,30.3085,-88.1395,1.924,10.51,1111122 
DISL,ioos:station:DISL:CATA:1,2013-02-04T08:00:00Z,30.3085,-88.1395,1.905,10.54,1111122 
DISL,ioos:station:DISL:CATA:1,2013-02-04T08:30:00Z,30.3085,-88.1395,1.891,10.56,1111122 
DISL,ioos:station:DISL:CATA:1,2013-02-04T09:00:00Z,30.3085,-88.1395,1.87,10.56,1111122 
DISL,ioos:station:DISL:CATA:1,2013-02-04T09:30:00Z,30.3085,-88.1395,1.861,10.56,1111122 
DISL,ioos:station:DISL:CATA:1,2013-02-04T10:00:00Z,30.3085,-88.1395,1.86,10.56,1111122 
DISL,ioos:station:DISL:CATA:1,2013-02-04T10:30:00Z,30.3085,-88.1395,1.856,10.53,1111122 
DISL,ioos:station:DISL:CATA:1,2013-02-04T11:00:00Z,30.3085,-88.1395,1.861,10.49,1111122 
DISL,ioos:station:DISL:CATA:1,2013-02-04T11:30:00Z,30.3085,-88.1395,1.879,10.46,1111122 
DISL,ioos:station:DISL:CATA:1,2013-02-04T12:00:00Z,30.3085,-88.1395,1.895,10.5,1111122 
DISL,ioos:station:DISL:CATA:1,2013-02-04T12:30:00Z,30.3085,-88.1395,1.93,10.52,1111122 
DISL,ioos:station:DISL:CATA:1,2013-02-04T13:00:00Z,30.3085,-88.1395,1.957,10.53,1111122 
DISL,ioos:station:DISL:CATA:1,2013-02-04T13:30:00Z,30.3085,-88.1395,1.994,10.54,1111122 
DISL,ioos:station:DISL:CATA:1,2013-02-04T14:00:00Z,30.3085,-88.1395,2.01,10.52,1111122 
DISL,ioos:station:DISL:CATA:1,2013-02-04T14:30:00Z,30.3085,-88.1395,2.03,10.52,1111122 
DISL,ioos:station:DISL:CATA:1,2013-02-04T15:00:00Z,30.3085,-88.1395,2.046,10.49,1111122 
DISL,ioos:station:DISL:CATA:1,2013-02-04T15:30:00Z,30.3085,-88.1395,2.076,10.61,1111122 
DISL,ioos:station:DISL:CATA:1,2013-02-04T16:00:00Z,30.3085,-88.1395,2.095,10.31,1111122 
DISL,ioos:station:DISL:CATA:1,2013-02-04T16:30:00Z,30.3085,-88.1395,2.095,10.3,1111122 
DISL,ioos:station:DISL:CATA:1,2013-02-04T17:00:00Z,30.3085,-88.1395,2.12,10.38,1111122 
DISL,ioos:station:DISL:CATA:1,2013-02-04T17:30:00Z,30.3085,-88.1395,2.148,10.54,1111122 
DISL,ioos:station:DISL:CATA:1,2013-02-04T18:00:00Z,30.3085,-88.1395,2.18,10.6,1111122 
DISL,ioos:station:DISL:CATA:1,2013-02-04T18:30:00Z,30.3085,-88.1395,2.212,10.63,1111122 
DISL,ioos:station:DISL:CATA:1,2013-02-04T19:00:00Z,30.3085,-88.1395,2.248,10.63,1111122 
DISL,ioos:station:DISL:CATA:1,2013-02-04T19:30:00Z,30.3085,-88.1395,2.273,10.63,1111122 
DISL,ioos:station:DISL:CATA:1,2013-02-04T20:00:00Z,30.3085,-88.1395,2.296,10.64,1111122 
DISL,ioos:station:DISL:CATA:1,2013-02-04T20:30:00Z,30.3085,-88.1395,2.318,10.69,1111122 
DISL,ioos:station:DISL:CATA:1,2013-02-04T21:00:00Z,30.3085,-88.1395,2.34,10.64,1111122 
DISL,ioos:station:DISL:CATA:1,2013-02-04T21:30:00Z,30.3085,-88.1395,2.364,10.66,1111122 
DISL,ioos:station:DISL:CATA:1,2013-02-04T22:00:00Z,30.3085,-88.1395,2.372,10.78,1111122 
DISL,ioos:station:DISL:CATA:1,2013-02-04T22:30:00Z,30.3085,-88.1395,2.376,11.18,1111122 
DISL,ioos:station:DISL:CATA:1,2013-02-04T23:00:00Z,30.3085,-88.1395,2.386,11.44,1111122 
DISL,ioos:station:DISL:CATA:1,2013-02-04T23:30:00Z,30.3085,-88.1395,2.389,11.56,1111122 
DISL,ioos:station:DISL:CATA:1,2013-02-05T00:00:00Z,30.3085,-88.1395,2.378,10.85,1111122 
DISL,ioos:station:DISL:CATA:1,2013-02-05T00:30:00Z,30.3085,-88.1395,2.379,10.55,1111122 
DISL,ioos:station:DISL:CATA:1,2013-02-05T01:00:00Z,30.3085,-88.1395,2.372,11.08,1111122 
DISL,ioos:station:DISL:CATA:1,2013-02-05T01:30:00Z,30.3085,-88.1395,2.35,11.0,1111122 
DISL,ioos:station:DISL:CATA:1,2013-02-05T02:00:00Z,30.3085,-88.1395,2.339,10.79,1111122 
DISL,ioos:station:DISL:CATA:1,2013-02-05T02:30:00Z,30.3085,-88.1395,2.309,10.94,1111122 
DISL,ioos:station:DISL:CATA:1,2013-02-05T03:00:00Z,30.3085,-88.1395,2.284,11.12,1111122 
DISL,ioos:station:DISL:CATA:1,2013-02-05T03:30:00Z,30.3085,-88.1395,2.251,11.19,1111122 
DISL,ioos:station:DISL:CATA:1,2013-02-05T04:00:00Z,30.3085,-88.1395,2.205,11.01,1111122 
DISL,ioos:station:DISL:CATA:1,2013-02-05T04:30:00Z,30.3085,-88.1395,2.17,10.85,1111122 
DISL,ioos:station:DISL:CATA:1,2013-02-05T05:00:00Z,30.3085,-88.1395,2.125,10.77,1111122 
DISL,ioos:station:DISL:CATA:1,2013-02-05T05:30:00Z,30.3085,-88.1395,2.081,10.66,1111122 
DISL,ioos:station:DISL:CATA:1,2013-02-05T06:00:00Z,30.3085,-88.1395,2.052,10.6,1111122 
DISL,ioos:station:DISL:CATA:1,2013-02-05T06:30:00Z,30.3085,-88.1395,2.029,10.55,1111122 
DISL,ioos:station:DISL:CATA:1,2013-02-05T07:00:00Z,30.3085,-88.1395,1.996,10.58,1111122 
DISL,ioos:station:DISL:CATA:1,2013-02-05T07:30:00Z,30.3085,-88.1395,1.977,10.64,1111122 
DISL,ioos:station:DISL:CATA:1,2013-02-05T08:00:00Z,30.3085,-88.1395,1.973,10.7,1111122 
DISL,ioos:station:DISL:CATA:1,2013-02-05T08:30:00Z,30.3085,-88.1395,1.938,10.74,1111122 
DISL,ioos:station:DISL:CATA:1,2013-02-05T09:00:00Z,30.3085,-88.1395,1.921,10.7,1111122 
DISL,ioos:station:DISL:CATA:1,2013-02-05T09:30:00Z,30.3085,-88.1395,1.916,10.62,1111122 
DISL,ioos:station:DISL:CATA:1,2013-02-05T10:00:00Z,30.3085,-88.1395,1.901,10.57,1111122 
DISL,ioos:station:DISL:CATA:1,2013-02-05T10:30:00Z,30.3085,-88.1395,1.885,10.53,1111122 
DISL,ioos:station:DISL:CATA:1,2013-02-05T11:00:00Z,30.3085,-88.1395,1.867,10.5,1111122 
DISL,ioos:station:DISL:CATA:1,2013-02-05T11:30:00Z,30.3085,-88.1395,1.854,10.49,1111122 
DISL,ioos:station:DISL:CATA:1,2013-02-05T12:00:00Z,30.3085,-88.1395,1.858,10.5,1111122 
DISL,ioos:station:DISL:CATA:1,2013-02-05T12:30:00Z,30.3085,-88.1395,1.905,10.49,1111122 
DISL,ioos:station:DISL:CATA:1,2013-02-05T13:00:00Z,30.3085,-88.1395,1.939,10.46,1111122 
DISL,ioos:station:DISL:CATA:1,2013-02-05T13:30:00Z,30.3085,-88.1395,1.98,10.42,1111122 
DISL,ioos:station:DISL:CATA:1,2013-02-05T14:00:00Z,30.3085,-88.1395,1.996,10.39,1111122 
DISL,ioos:station:DISL:CATA:1,2013-02-05T14:30:00Z,30.3085,-88.1395,2.038,10.36,1111122 
DISL,ioos:station:DISL:CATA:1,2013-02-05T15:00:00Z,30.3085,-88.1395,2.068,10.29,1111122 
DISL,ioos:station:DISL:CATA:1,2013-02-05T15:30:00Z,30.3085,-88.1395,2.101,10.26,1111122 
DISL,ioos:station:DISL:CATA:1,2013-02-05T16:00:00Z,30.3085,-88.1395,2.136,10.25,1111122 
DISL,ioos:station:DISL:CATA:1,2013-02-05T16:30:00Z,30.3085,-88.1395,2.156,10.23,1111122 
DISL,ioos:station:DISL:CATA:1,2013-02-05T17:00:00Z,30.3085,-88.1395,2.171,10.24,1111122 
DISL,ioos:station:DISL:CATA:1,2013-02-05T17:30:00Z,30.3085,-88.1395,2.204,10.36,1111122 
DISL,ioos:station:DISL:CATA:1,2013-02-05T18:00:00Z,30.3085,-88.1395,2.244,10.55,1111122 
DISL,ioos:station:DISL:CATA:1,2013-02-05T18:30:00Z,30.3085,-88.1395,2.294,10.69,1111122 
DISL,ioos:station:DISL:CATA:1,2013-02-05T19:00:00Z,30.3085,-88.1395,2.323,10.62,1111122 
DISL,ioos:station:DISL:CATA:1,2013-02-05T19:30:00Z,30.3085,-88.1395,2.359,10.61,1111122 
DISL,ioos:station:DISL:CATA:1,2013-02-05T20:00:00Z,30.3085,-88.1395,2.409,10.61,1111122 
DISL,ioos:station:DISL:CATA:1,2013-02-05T20:30:00Z,30.3085,-88.1395,2.434,10.72,1111122 
DISL,ioos:station:DISL:CATA:1,2013-02-05T21:00:00Z,30.3085,-88.1395,2.461,9.79,1111122 
DISL,ioos:station:DISL:CATA:1,2013-02-05T21:30:00Z,30.3085,-88.1395,2.473,8.01,1111122 
DISL,ioos:station:DISL:CATA:1,2013-02-05T22:00:00Z,30.3085,-88.1395,2.478,6.88,1111122 
DISL,ioos:station:DISL:CATA:1,2013-02-05T22:30:00Z,30.3085,-88.1395,2.482,4.62,1111122 
DISL,ioos:station:DISL:CATA:1,2013-02-05T23:00:00Z,30.3085,-88.1395,2.493,4.11,1111122 
DISL,ioos:station:DISL:CATA:1,2013-02-05T23:30:00Z,30.3085,-88.1395,2.503,3.66,1111122 
DISL,ioos:station:DISL:CATA:1,2013-02-06T00:00:00Z,30.3085,-88.1395,2.505,3.82,1111122 
DISL,ioos:station:DISL:CATA:1,2013-02-06T00:30:00Z,30.3085,-88.1395,2.5,3.86,1111122 
DISL,ioos:station:DISL:CATA:1,2013-02-06T01:00:00Z,30.3085,-88.1395,2.512,3.92,1111122 
DISL,ioos:station:DISL:CATA:1,2013-02-06T01:30:00Z,30.3085,-88.1395,2.499,4.07,1111122 
DISL,ioos:station:DISL:CATA:1,2013-02-06T02:00:00Z,30.3085,-88.1395,2.486,4.16,1111122 
DISL,ioos:station:DISL:CATA:1,2013-02-06T02:30:00Z,30.3085,-88.1395,2.466,4.15,1111122 
DISL,ioos:station:DISL:CATA:1,2013-02-06T03:00:00Z,30.3085,-88.1395,2.424,4.18,1111122 
DISL,ioos:station:DISL:CATA:1,2013-02-06T03:30:00Z,30.3085,-88.1395,2.406,4.1,1111122 
DISL,ioos:station:DISL:CATA:1,2013-02-06T04:00:00Z,30.3085,-88.1395,2.376,4.07,1111122 
DISL,ioos:station:DISL:CATA:1,2013-02-06T04:30:00Z,30.3085,-88.1395,2.336,4.17,1111122 
DISL,ioos:station:DISL:CATA:1,2013-02-06T05:00:00Z,30.3085,-88.1395,2.293,7.37,1111122 
DISL,ioos:station:DISL:CATA:1,2013-02-06T05:30:00Z,30.3085,-88.1395,2.234,9.69,1111122 
DISL,ioos:station:DISL:CATA:1,2013-02-06T06:00:00Z,30.3085,-88.1395,2.183,10.2,1111122 
DISL,ioos:station:DISL:CATA:1,2013-02-06T06:30:00Z,30.3085,-88.1395,2.148,10.49,1111122 
DISL,ioos:station:DISL:CATA:1,2013-02-06T07:00:00Z,30.3085,-88.1395,2.101,10.79,1111122 
DISL,ioos:station:DISL:CATA:1,2013-02-06T07:30:00Z,30.3085,-88.1395,2.055,10.93,1111122 
DISL,ioos:station:DISL:CATA:1,2013-02-06T08:00:00Z,30.3085,-88.1395,2.021,10.97,1111122 
DISL,ioos:station:DISL:CATA:1,2013-02-06T08:30:00Z,30.3085,-88.1395,1.991,10.99,1111122 
DISL,ioos:station:DISL:CATA:1,2013-02-06T09:00:00Z,30.3085,-88.1395,1.961,11.03,1111122 
DISL,ioos:station:DISL:CATA:1,2013-02-06T09:30:00Z,30.3085,-88.1395,1.943,10.87,1111122 
DISL,ioos:station:DISL:CATA:1,2013-02-06T10:00:00Z,30.3085,-88.1395,1.934,10.72,1111122 
DISL,ioos:station:DISL:CATA:1,2013-02-06T10:30:00Z,30.3085,-88.1395,1.926,10.64,1111122 
DISL,ioos:station:DISL:CATA:1,2013-02-06T11:00:00Z,30.3085,-88.1395,1.926,10.55,1111122 
DISL,ioos:station:DISL:CATA:1,2013-02-06T11:30:00Z,30.3085,-88.1395,1.93,10.5,1111122 
DISL,ioos:station:DISL:CATA:1,2013-02-06T12:00:00Z,30.3085,-88.1395,1.941,10.47,1111122 
DISL,ioos:station:DISL:CATA:1,2013-02-06T12:30:00Z,30.3085,-88.1395,1.956,10.45,1111122 
DISL,ioos:station:DISL:CATA:1,2013-02-06T13:00:00Z,30.3085,-88.1395,1.981,10.44,1111122 
DISL,ioos:station:DISL:CATA:1,2013-02-06T13:30:00Z,30.3085,-88.1395,2.009,10.46,1111122 
DISL,ioos:station:DISL:CATA:1,2013-02-06T14:00:00Z,30.3085,-88.1395,2.031,10.45,1111122 